Regional Weather Roundup
Issued by NWS Albany, NY

Home | Current Version | Previous Version | Text Only | Print | Product List | Glossary On
Versions: 1 2 3 4 5 6 7 8 9 10 11 12 13 14 15 16 17 18 19 20 21 22 23 24 25 26 27 28 29 30 31 32 33 34 35 36 37 38 39 40 41 42 43 44 45 46 47 48 49 50
000
ASUS41 KALY 061910
RWRALY

NEW YORK STATE HOURLY WEATHER ROUNDUP
NATIONAL WEATHER SERVICE ALBANY NY
300 PM EDT MON JUL 06 2015

NOTE: "FAIR" INDICATES FEW OR NO CLOUDS BELOW 12,000 FEET WITH NO
SIGNIFICANT WEATHER AND/OR NO OBSTRUCTIONS TO VISIBILITY.

NYZ032-033-038>043-046>054-057>066-NYZ062>081-062000-
EAST


CITY           SKY/WX    TMP DP  RH WIND       PRES   REMARKS
ALBANY         MOSUNNY   84  59  42 S3        30.13F
GLENS FALLS    SUNNY     82  62  50 S12       30.12F
POUGHKEEPSIE   PTSUNNY   83  66  56 S3        30.12F
NEWBURGH       CLOUDY    79  68  69 CALM      30.15F
MONTGOMERY     PTSUNNY   81  68  64 SW7       30.13F
WHITE PLAINS   CLOUDY    79  63  57 S7        30.15F
ISLIP          CLOUDY    77  65  66 S7        30.15F
NEW YORK CITY  PTSUNNY   81  65  58 S10       30.14F
CENTRAL PARK   PTSUNNY   82  66  58 S6        30.17F
$$

NYZ005>009-017-018-044>046-055-056-062000-
CENTRAL


CITY           SKY/WX    TMP DP  RH WIND       PRES   REMARKS
FULTON         SUNNY     82  64  54 VRB5      30.07F
SYRACUSE       MOSUNNY   83  64  52 SE7       30.07F
ROME           SUNNY     84  58  40 MISG      30.11F
ELMIRA         CLOUDY    80  70  71 VRB6      30.09F
BINGHAMTON     CLOUDY    74  66  76 SE8       30.16F
MONTICELLO     PTSUNNY   79  66  65 S8        30.19F
$$

NYZ026>034-041>043-062000-
NORTH


CITY           SKY/WX    TMP DP  RH WIND       PRES   REMARKS
WATERTOWN      SUNNY     84  58  40 SE6       30.06F
FORT DRUM      NOT AVBL
MASSENA        MOSUNNY   83  59  44 SW8G21    30.09F
SARANAC LAKE   SUNNY     78  49  35 CALM      30.15S
PLATTSBURGH    SUNNY     79  63  57 SE9       30.11F
$$

NYZ001>004-010>016-019>021-062000-
WEST


CITY           SKY/WX    TMP DP  RH WIND       PRES   REMARKS
NIAGARA FALLS  MOSUNNY   85  64  49 S5        30.01F
BUFFALO        PTSUNNY   85  64  49 SE7       30.02F
DUNKIRK        MOSUNNY   81  71  71 NW9       30.02F
JAMESTOWN      PTSUNNY   73  64  73 SE9       30.09F
WELLSVILLE     PTSUNNY   77  66  68 S9        30.14F
ROCHESTER      MOSUNNY   84  67  56 S14       30.03F
PENN YAN       PTSUNNY   80  68  66 SE9       30.09F
$$

             KEY
       WCI = WIND CHILL INDEX
       VSB = VISIBILITY
       HX  = HEAT INDEX
$$


USA.gov is the U.S. government's official web portal to all federal, state and local government web resources and services.